Saginaw, MI

2:48 PM EDT on September 26, 2017 (GMT -0400)
MBS International

Weather History for KMBS - March, 2012

Change the Weather History Date:

Saturday, March 24, 2012

  Actual Average Record
Temperature  
Mean Temperature 50 °F 37 °F  
Max Temperature 54 °F 46 °F 67 °F (2017)
Min Temperature 46 °F 28 °F 12 °F (2014)
Degree Days  
Heating Degree Days 16    
Month to date heating degree days  
Since 1 July heating degree days  
Cooling Degree Days 0    
Month to date cooling degree days  
Year to date cooling degree days  
Moisture  
Dew Point 46 °F    
Average Humidity 89    
Maximum Humidity 93    
Minimum Humidity 77    
Precipitation  
Precipitation 0.10 in 0.07 in 0.70 in (2016)
Month to date precipitation 1.57  
Year to date precipitation 4.89  
Snow  
Snow 0.00 in - - ()
Month to date snowfall  
Since 1 July snowfall  
Snow Depth -    
Sea Level Pressure  
Sea Level Pressure 29.89 in    
Wind  
Wind Speed 8 mph (NNE)    
Max Wind Speed 14 mph    
Max Gust Speed -    
Visibility 8 miles    
Events Rain    
T = Trace of Precipitation, MM = Missing Value Source: NWS Daily Summary

Daily Weather History Graph

Daily Weather History Graph

Search for Another Location

Airport or City:

Trip Planner

Search our weather history database for the weather conditions in past years. The results will help you decide how hot, cold, wet, or windy it might be!

Date:

Astronomy

Mar. 24, 2012 Rise Set
Actual Time 7:31 AM EDT 7:54 PM EDT
Civil Twilight 7:02 AM EDT 8:22 PM EDT
Nautical Twilight 6:29 AM EDT 8:56 PM EDT
Astronomical Twilight 5:54 AM EDT 9:31 PM EDT
Moon 8:04 AM EDT (3/24) 10:18 PM EDT (3/24)
Length of Visible Light 13h 19m
Length of Day
12h 22m
Waxing Crescent, 4% of the Moon is Illuminated
Mar 24
Waxing Crescent
Mar 30
First Quarter
Apr 6
Full
Apr 13
Last Quarter
Apr 21
New

Hourly Weather History & Observations

Time (EDT) Temp. Windchill Dew Point Humidity Pressure Visibility Wind Dir Wind Speed Gust Speed Precip Events Conditions
12:39 AM 51.8 °F - 48.2 °F 88% 29.92 in 10.0 mi NNE 4.6 mph - 0.02 in   Overcast
12:53 AM 52.0 °F - 48.9 °F 89% 29.92 in 10.0 mi NNE 8.1 mph - 0.02 in   Overcast
1:44 AM 51.8 °F - 48.2 °F 88% 29.90 in 10.0 mi NE 6.9 mph - N/A   Overcast
1:53 AM 53.1 °F - 48.9 °F 86% 29.90 in 10.0 mi NE 6.9 mph - N/A   Overcast
2:53 AM 52.0 °F - 48.9 °F 89% 29.88 in 10.0 mi NE 8.1 mph - N/A   Overcast
3:53 AM 53.1 °F - 46.9 °F 80% 29.86 in 10.0 mi ENE 6.9 mph - N/A   Mostly Cloudy
4:53 AM 53.6 °F - 46.4 °F 77% 29.85 in 10.0 mi East 8.1 mph - N/A   Overcast
5:44 AM 53.6 °F - 46.4 °F 77% 29.86 in 10.0 mi NE 8.1 mph - N/A   Overcast
5:53 AM 52.0 °F - 48.0 °F 86% 29.87 in 10.0 mi NE 10.4 mph - N/A   Overcast
6:53 AM 48.9 °F - 45.0 °F 86% 29.87 in 10.0 mi NNE 11.5 mph - 0.01 in   Overcast
7:53 AM 48.2 °F - 44.6 °F 87% 29.87 in 10.0 mi NNE 11.5 mph - N/A   Overcast
8:53 AM 48.9 °F - 45.0 °F 86% 29.88 in 10.0 mi NNE 13.8 mph - N/A   Overcast
9:53 AM 48.9 °F - 46.0 °F 90% 29.88 in 9.0 mi NNE 9.2 mph - N/A   Overcast
10:53 AM 48.9 °F - 46.0 °F 90% 29.88 in 10.0 mi NE 10.4 mph - 0.00 in   Overcast
11:53 AM 50.0 °F - 46.9 °F 89% 29.89 in 10.0 mi NNE 10.4 mph - N/A   Overcast
12:09 PM 50.0 °F - 46.4 °F 87% 29.87 in 1.8 mi North 10.4 mph - 0.05 in Rain Heavy Rain
12:21 PM 48.2 °F - 46.4 °F 93% 29.87 in 2.0 mi NNE 11.5 mph - 0.07 in Rain Light Rain
12:43 PM 48.2 °F - 46.4 °F 93% 29.87 in 9.0 mi NNE 12.7 mph - 0.07 in   Overcast
12:53 PM 48.0 °F - 45.0 °F 89% 29.88 in 7.0 mi NNE 12.7 mph - 0.07 in   Overcast
1:53 PM 48.9 °F - 46.9 °F 93% 29.87 in 7.0 mi NNE 12.7 mph - N/A   Overcast
2:53 PM 48.9 °F - 46.0 °F 90% 29.87 in 8.0 mi NNE 12.7 mph - N/A   Overcast
3:29 PM 48.2 °F - 46.4 °F 93% 29.86 in 2.5 mi NNE 11.5 mph - N/A   Overcast
3:53 PM 48.0 °F - 46.0 °F 93% 29.88 in 2.5 mi NNE 11.5 mph - N/A   Overcast
4:53 PM 48.0 °F - 46.0 °F 93% 29.88 in 2.5 mi NNE 10.4 mph - N/A   Overcast
5:53 PM 46.9 °F - 45.0 °F 93% 29.90 in 2.5 mi NNE 9.2 mph - N/A   Overcast
6:22 PM 46.4 °F 41.9 °F 44.6 °F 93% 29.88 in 1.5 mi NNE 9.2 mph - N/A   Overcast
6:49 PM 46.4 °F 41.5 °F 44.6 °F 93% 29.89 in 2.5 mi NNE 10.4 mph - N/A   Overcast
6:53 PM 46.9 °F - 45.0 °F 93% 29.90 in 2.5 mi NNE 10.4 mph - N/A   Overcast
7:05 PM 46.4 °F 41.1 °F 44.6 °F 93% 29.89 in 8.0 mi NNE 11.5 mph - N/A   Overcast
7:44 PM 48.2 °F - 44.6 °F 87% 29.90 in 10.0 mi NNE 9.2 mph - N/A   Overcast
7:53 PM 48.0 °F - 45.0 °F 89% 29.91 in 10.0 mi NNE 8.1 mph - N/A   Overcast
8:13 PM 48.2 °F - 44.6 °F 87% 29.90 in 10.0 mi North 8.1 mph - N/A   Overcast
8:35 PM 48.2 °F - 44.6 °F 87% 29.90 in 10.0 mi NNE 5.8 mph - N/A   Overcast
8:53 PM 48.0 °F - 45.0 °F 89% 29.91 in 10.0 mi NE 6.9 mph - N/A   Overcast
9:14 PM 48.2 °F - 44.6 °F 87% 29.90 in 10.0 mi NNE 5.8 mph - N/A   Overcast
9:27 PM 48.2 °F - 44.6 °F 87% 29.90 in 10.0 mi NE 5.8 mph - N/A   Overcast
9:53 PM 48.0 °F - 45.0 °F 89% 29.92 in 10.0 mi NE 4.6 mph - N/A   Overcast
10:48 PM 48.2 °F - 44.6 °F 87% 29.91 in 10.0 mi Calm Calm - N/A   Overcast
10:53 PM 48.0 °F - 45.0 °F 89% 29.92 in 10.0 mi Calm Calm - N/A   Overcast
11:53 PM 48.0 °F - 45.0 °F 89% 29.92 in 10.0 mi NW 5.8 mph - N/A   Overcast